Date,TemperatureHighF,TemperatureAvgF,TemperatureLowF,DewpointHighF,DewpointAvgF,DewpointLowF,HumidityHigh,HumidityAvg,HumidityLow,PressureMaxIn,PressureMinIn,WindSpeedMaxMPH,WindSpeedAvgMPH,GustSpeedMaxMPH,PrecipitationSumIn
2013-2-1,47,38,33,35,33,28,98,84,60,0.00,40.00,4,1,7,0.01
2013-2-2,50,33,27,29,25,22,94,76,42,0.00,40.00,4,1,10,0.00
2013-2-3,36,30,27,29,27,25,98,89,74,0.00,40.00,4,2,7,0.00
2013-2-4,39,30,27,31,28,26,99,93,72,0.00,40.00,5,1,7,0.00
2013-2-5,42,31,27,33,28,27,99,90,66,0.00,40.00,6,2,13,0.00
2013-2-6,31,27,25,28,26,24,98,95,88,0.00,40.00,3,2,10,0.01
2013-2-7,45,32,28,28,22,20,89,67,52,0.00,40.00,8,2,12,0.01
2013-2-8,39,33,28,24,21,18,83,64,47,0.00,40.00,16,8,34,0.00
2013-2-9,39,32,28,25,19,14,82,59,43,0.00,40.00,14,8,28,0.00
2013-2-10,42,33,27,21,18,15,69,53,34,0.00,40.00,13,5,28,0.00
2013-2-11,41,30,23,20,17,12,79,59,37,0.00,40.00,11,2,15,0.00
2013-2-12,44,32,26,26,21,18,75,64,41,0.00,40.00,5,2,7,0.00
2013-2-13,48,37,32,31,28,25,79,71,51,0.00,40.00,5,2,8,0.00
2013-2-14,49,37,33,29,24,21,76,58,41,0.00,40.00,4,2,8,0.00
2013-2-15,50,39,31,30,26,23,71,59,43,0.00,40.00,9,2,11,0.00
2013-2-16,52,39,33,32,28,26,89,67,43,0.00,40.00,13,4,21,0.01
2013-2-17,42,34,29,30,23,19,88,65,48,0.00,40.00,7,3,11,0.01
2013-2-18,41,32,25,21,16,13,67,52,33,0.00,40.00,6,4,11,0.00
2013-2-19,40,32,27,31,23,12,96,73,42,0.00,40.00,8,2,12,0.12
2013-2-20,42,31,25,24,17,12,86,58,31,0.00,40.00,11,3,23,0.07
2013-2-21,36,28,22,27,19,13,97,70,40,0.00,40.00,7,3,12,0.00
2013-2-22,31,29,27,31,28,26,99,94,87,0.00,40.00,11,4,18,0.02
2013-2-23,38,30,23,31,26,20,99,84,60,0.00,40.00,16,4,31,0.35
2013-2-24,42,30,23,29,23,19,97,77,56,0.00,40.00,5,3,10,0.27
2013-2-25,32,27,25,27,23,17,96,83,62,0.00,40.00,8,3,15,0.11
2013-2-26,44,27,20,25,19,14,96,73,44,0.00,40.00,7,3,11,0.09
2013-2-27,45,30,22,21,18,14,75,61,38,0.00,40.00,7,2,11,0.01
2013-2-28,38,33,28,33,27,18,96,79,56,0.00,40.00,6,2,12,0.08